Location: Castillon
(43.0896°N, 0.2156°E)
Time: 19:33:59
(UTC+00:00)

Cosmos 1953 - Pass Details

Date: 16 June 2021
Orbit: 538 x 557 km, 82.5° (Epoch: 23 July)

Event Time Altitude Azimuth Distance (km) Brightness Sun altitude
Rises 21:07:00 0° 356° (N) 2,750 6.8 -12.5°
Reaches altitude 10° 21:09:14 10° 2° (N) 1,851 5.7 -12.8°
Maximum altitude 21:13:13 51° 79° (ENE) 705 2.7 -13.3°
Enters shadow 21:15:34 22° 147° (SSE) 1,229 3.5 -13.5°
